UAL1912 KLAX-KDEN

Flight info

Callsign UAL1912
Flight time 1h 41m
Altitude 37000
Route ORCKA5 LAS J146 DICEE BUMMP SSKII4
Aircraft B738/M-SDE2E3FGHIRWXY/LB1

Departure

Time 2026-05-05 16:26
Airport Los Angeles International Airport (KLAX)

Arrival

Time 2026-05-05 18:07
Airport Denver International Airport (KDEN)
Time Latitude Longitude Altitude Speed Heading
2026-05-05 15:58 33.94069 -118.40011 125 ft 0 kts 81°
2026-05-05 16:15 33.94067 -118.40030 125 ft 2 kts 81°
2026-05-05 16:15 33.94064 -118.40069 125 ft 2 kts 143°
2026-05-05 16:16 33.94067 -118.40072 125 ft 0 kts 176°
2026-05-05 16:19 33.94021 -118.40066 123 ft 8 kts 173°
2026-05-05 16:20 33.93913 -118.40044 122 ft 8 kts 152°
2026-05-05 16:20 33.93886 -118.39923 125 ft 12 kts 83°
2026-05-05 16:21 33.93918 -118.39611 125 ft 19 kts 83°
2026-05-05 16:22 33.93965 -118.39154 121 ft 17 kts 83°
2026-05-05 16:22 33.93994 -118.38876 125 ft 16 kts 83°
2026-05-05 16:23 33.94020 -118.38618 124 ft 15 kts 83°
2026-05-05 16:23 33.94033 -118.38493 125 ft 15 kts 83°
2026-05-05 16:23 33.94059 -118.38227 125 ft 16 kts 83°
2026-05-05 16:24 33.94072 -118.38106 125 ft 11 kts 81°
2026-05-05 16:24 33.94078 -118.38032 125 ft 6 kts 97°
2026-05-05 16:24 33.94073 -118.38018 125 ft 1 kts 124°
2026-05-05 16:25 33.94047 -118.38002 125 ft 7 kts 166°
2026-05-05 16:25 33.93984 -118.38010 124 ft 0 kts 259°
2026-05-05 16:26 33.93936 -118.38494 121 ft 92 kts 263°
2026-05-05 16:26 33.93703 -118.40790 812 ft 157 kts 263°
2026-05-05 16:27 33.93564 -118.42086 1666 ft 154 kts 262°
2026-05-05 16:27 33.93437 -118.43428 2241 ft 176 kts 263°
2026-05-05 16:27 33.93287 -118.45025 2636 ft 200 kts 263°
2026-05-05 16:27 33.93124 -118.46715 3289 ft 207 kts 264°
2026-05-05 16:28 33.92826 -118.48409 4094 ft 207 kts 250°
2026-05-05 16:28 33.92267 -118.50092 4568 ft 230 kts 248°
2026-05-05 16:28 33.91594 -118.51967 4921 ft 254 kts 247°
2026-05-05 16:28 33.90868 -118.53946 5660 ft 262 kts 247°
2026-05-05 16:29 33.90138 -118.55970 6531 ft 265 kts 248°
2026-05-05 16:29 33.89420 -118.58021 7353 ft 268 kts 249°
2026-05-05 16:29 33.88566 -118.60027 8159 ft 273 kts 232°
2026-05-05 16:29 33.87088 -118.61468 9026 ft 278 kts 208°
2026-05-05 16:30 33.85205 -118.62056 9873 ft 286 kts 183°
2026-05-05 16:30 33.83217 -118.61624 10439 ft 303 kts 159°
2026-05-05 16:30 33.81403 -118.60135 10681 ft 330 kts 135°
2026-05-05 16:30 33.80120 -118.57809 11281 ft 341 kts 113°
2026-05-05 16:31 33.79662 -118.55002 12009 ft 347 kts 88°
2026-05-05 16:31 33.80235 -118.52193 12766 ft 351 kts 61°
2026-05-05 16:31 33.81790 -118.49964 13523 ft 351 kts 34°
2026-05-05 16:31 33.83963 -118.48649 14261 ft 352 kts 18°
2026-05-05 16:32 33.86270 -118.47594 14936 ft 358 kts 19°
2026-05-05 16:32 33.88588 -118.46412 15619 ft 365 kts 21°
2026-05-05 16:32 33.90890 -118.45071 16340 ft 372 kts 28°
2026-05-05 16:32 33.92607 -118.43634 16908 ft 378 kts 38°
2026-05-05 16:33 33.94487 -118.41320 17579 ft 387 kts 51°
2026-05-05 16:33 33.96021 -118.38680 18257 ft 393 kts 56°
2026-05-05 16:33 33.97528 -118.35911 18835 ft 395 kts 56°
2026-05-05 16:33 33.99056 -118.33134 19011 ft 397 kts 55°
2026-05-05 16:34 34.00610 -118.30365 19026 ft 400 kts 55°
2026-05-05 16:34 34.02189 -118.27580 19154 ft 407 kts 55°
2026-05-05 16:34 34.03794 -118.24754 19782 ft 409 kts 55°
2026-05-05 16:34 34.05403 -118.21921 20508 ft 410 kts 55°
2026-05-05 16:35 34.07022 -118.19065 21107 ft 415 kts 55°
2026-05-05 16:35 34.08660 -118.16170 21673 ft 421 kts 55°
2026-05-05 16:35 34.10318 -118.13237 22230 ft 426 kts 55°
2026-05-05 16:35 34.11997 -118.10263 22812 ft 430 kts 55°
2026-05-05 16:36 34.13690 -118.07264 23350 ft 435 kts 55°
2026-05-05 16:36 34.15405 -118.04222 23832 ft 441 kts 55°
2026-05-05 16:36 34.17137 -118.01147 24303 ft 444 kts 55°
2026-05-05 16:36 34.18881 -117.98047 24767 ft 448 kts 55°
2026-05-05 16:37 34.20643 -117.94913 25156 ft 454 kts 56°
2026-05-05 16:37 34.22425 -117.91741 25555 ft 459 kts 56°
2026-05-05 16:37 34.24225 -117.88533 26072 ft 461 kts 56°
2026-05-05 16:37 34.26030 -117.85313 26518 ft 465 kts 56°
2026-05-05 16:38 34.27851 -117.82061 26882 ft 471 kts 56°
2026-05-05 16:38 34.29696 -117.78764 27265 ft 475 kts 56°
2026-05-05 16:38 34.31555 -117.75438 27675 ft 479 kts 56°
2026-05-05 16:38 34.33426 -117.72089 28071 ft 482 kts 56°
2026-05-05 16:39 34.35311 -117.68716 28388 ft 488 kts 55°
2026-05-05 16:39 34.37267 -117.65332 28735 ft 492 kts 54°
2026-05-05 16:39 34.39274 -117.61974 29155 ft 494 kts 53°
2026-05-05 16:39 34.41311 -117.58606 29508 ft 498 kts 53°
2026-05-05 16:40 34.43371 -117.55203 29792 ft 503 kts 53°
2026-05-05 16:40 34.45437 -117.51774 30097 ft 507 kts 53°
2026-05-05 16:40 34.47515 -117.48306 30380 ft 510 kts 54°
2026-05-05 16:40 34.49599 -117.44811 30661 ft 513 kts 54°
2026-05-05 16:41 34.51695 -117.41284 30840 ft 518 kts 54°
2026-05-05 16:41 34.53810 -117.37719 31094 ft 521 kts 54°
2026-05-05 16:41 34.55927 -117.34145 31411 ft 523 kts 54°
2026-05-05 16:41 34.58022 -117.30606 31734 ft 524 kts 54°
2026-05-05 16:42 34.60149 -117.27009 32032 ft 526 kts 54°
2026-05-05 16:42 34.62286 -117.23395 32307 ft 528 kts 54°
2026-05-05 16:42 34.64426 -117.19769 32639 ft 528 kts 54°
2026-05-05 16:42 34.66563 -117.16147 32952 ft 529 kts 54°
2026-05-05 16:43 34.68708 -117.12509 33213 ft 531 kts 54°
2026-05-05 16:43 34.70864 -117.08847 33491 ft 532 kts 55°
2026-05-05 16:43 34.73015 -117.05189 33826 ft 532 kts 55°
2026-05-05 16:43 34.75169 -117.01523 34092 ft 533 kts 54°
2026-05-05 16:44 34.77328 -116.97845 34328 ft 535 kts 54°
2026-05-05 16:44 34.79492 -116.94153 34603 ft 536 kts 54°
2026-05-05 16:44 34.81652 -116.90465 34921 ft 535 kts 54°
2026-05-05 16:44 34.83811 -116.86776 35205 ft 535 kts 54°
2026-05-05 16:45 34.85965 -116.83090 35445 ft 536 kts 54°
2026-05-05 16:45 34.88129 -116.79383 35701 ft 536 kts 54°
2026-05-05 16:45 34.90287 -116.75683 35980 ft 536 kts 54°
2026-05-05 16:45 34.92490 -116.72031 36327 ft 533 kts 49°
2026-05-05 16:46 34.94927 -116.68659 36689 ft 529 kts 45°
2026-05-05 16:46 34.97423 -116.65386 36982 ft 528 kts 44°
2026-05-05 16:46 35.02512 -116.58840 36931 ft 532 kts 44°
2026-05-05 16:47 35.06710 -116.53386 36913 ft 527 kts 44°
2026-05-05 16:47 35.11673 -116.46846 36925 ft 524 kts 45°
2026-05-05 16:48 35.16612 -116.40295 36933 ft 524 kts 45°
2026-05-05 16:48 35.21547 -116.33740 36949 ft 524 kts 45°
2026-05-05 16:49 35.26495 -116.27160 36933 ft 525 kts 45°
2026-05-05 16:49 35.31444 -116.20568 36919 ft 527 kts 45°
2026-05-05 16:50 35.36402 -116.13951 36936 ft 528 kts 45°
2026-05-05 16:50 35.41372 -116.07304 36948 ft 530 kts 45°
2026-05-05 16:51 35.46362 -116.00616 36935 ft 533 kts 45°
2026-05-05 16:51 35.51372 -115.93889 36947 ft 535 kts 45°
2026-05-05 16:52 35.56391 -115.87135 36932 ft 536 kts 45°
2026-05-05 16:52 35.61419 -115.80355 36946 ft 537 kts 45°
2026-05-05 16:53 35.66443 -115.73538 36951 ft 538 kts 45°
2026-05-05 16:53 35.71438 -115.66668 36944 ft 539 kts 45°
2026-05-05 16:54 35.76425 -115.59788 36947 ft 539 kts 45°
2026-05-05 16:54 35.81419 -115.52898 36954 ft 539 kts 45°
2026-05-05 16:55 35.86415 -115.45996 36940 ft 540 kts 45°
2026-05-05 16:55 35.91405 -115.39087 36951 ft 540 kts 45°
2026-05-05 16:56 35.96391 -115.32167 36954 ft 539 kts 45°
2026-05-05 16:56 36.01367 -115.25247 36950 ft 539 kts 45°
2026-05-05 16:57 36.06285 -115.18235 36930 ft 541 kts 52°
2026-05-05 16:57 36.09972 -115.10219 36936 ft 540 kts 71°
2026-05-05 16:58 36.12537 -115.01493 36901 ft 540 kts 73°
2026-05-05 16:58 36.15102 -114.92752 36897 ft 542 kts 71°
2026-05-05 16:59 36.17766 -114.84021 36878 ft 543 kts 71°
2026-05-05 16:59 36.20447 -114.75271 36869 ft 544 kts 71°
2026-05-05 17:00 36.23140 -114.66501 36845 ft 545 kts 71°
2026-05-05 17:00 36.25832 -114.57700 36832 ft 547 kts 71°
2026-05-05 17:01 36.28520 -114.48874 36821 ft 548 kts 71°
2026-05-05 17:01 36.31207 -114.40022 36839 ft 549 kts 71°
2026-05-05 17:02 36.33893 -114.31149 36832 ft 550 kts 71°
2026-05-05 17:02 36.36580 -114.22242 36836 ft 552 kts 71°
2026-05-05 17:03 36.39265 -114.13315 36836 ft 553 kts 71°
2026-05-05 17:03 36.41946 -114.04373 36844 ft 553 kts 71°
2026-05-05 17:04 36.44603 -113.95482 36832 ft 553 kts 71°
2026-05-05 17:04 36.47291 -113.86459 36842 ft 553 kts 71°
2026-05-05 17:05 36.49955 -113.77490 36854 ft 553 kts 71°
2026-05-05 17:05 36.52613 -113.68509 36861 ft 554 kts 70°
2026-05-05 17:06 36.55250 -113.59572 36852 ft 554 kts 71°
2026-05-05 17:06 36.57896 -113.50574 36860 ft 554 kts 71°
2026-05-05 17:07 36.60531 -113.41584 36860 ft 552 kts 70°
2026-05-05 17:07 36.63153 -113.32611 36857 ft 551 kts 71°
2026-05-05 17:08 36.65744 -113.23660 36879 ft 549 kts 71°
2026-05-05 17:08 36.68317 -113.14722 36890 ft 547 kts 71°
2026-05-05 17:09 36.70874 -113.05811 36918 ft 545 kts 71°
2026-05-05 17:09 36.73420 -112.96920 36929 ft 544 kts 71°
2026-05-05 17:10 36.75951 -112.88053 36926 ft 542 kts 71°
2026-05-05 17:10 36.78471 -112.79195 36910 ft 541 kts 71°
2026-05-05 17:11 36.80976 -112.70361 36896 ft 540 kts 71°
2026-05-05 17:11 36.83470 -112.61536 36854 ft 539 kts 71°
2026-05-05 17:12 36.85954 -112.52715 36846 ft 539 kts 71°
2026-05-05 17:12 36.88434 -112.43885 36829 ft 539 kts 71°
2026-05-05 17:13 36.90913 -112.35058 36827 ft 538 kts 71°
2026-05-05 17:13 36.93388 -112.26233 36811 ft 538 kts 71°
2026-05-05 17:14 36.95843 -112.17455 36810 ft 538 kts 71°
2026-05-05 17:14 36.98305 -112.08620 36801 ft 538 kts 71°
2026-05-05 17:15 37.00760 -111.99781 36800 ft 537 kts 71°
2026-05-05 17:15 37.03202 -111.90960 36799 ft 536 kts 71°
2026-05-05 17:16 37.05635 -111.82139 36830 ft 536 kts 71°
2026-05-05 17:16 37.08061 -111.73312 36836 ft 536 kts 71°
2026-05-05 17:17 37.10478 -111.64494 36855 ft 535 kts 71°
2026-05-05 17:17 37.12888 -111.55670 36854 ft 535 kts 71°
2026-05-05 17:18 37.15285 -111.46861 36868 ft 534 kts 71°
2026-05-05 17:18 37.17677 -111.38040 36828 ft 534 kts 71°
2026-05-05 17:19 37.20061 -111.29229 36820 ft 534 kts 72°
2026-05-05 17:19 37.22568 -111.20474 36788 ft 533 kts 64°
2026-05-05 17:20 37.25845 -111.12145 36798 ft 533 kts 61°
2026-05-05 17:20 37.29237 -111.03870 36776 ft 533 kts 61°
2026-05-05 17:21 37.32584 -110.95582 36788 ft 532 kts 62°
2026-05-05 17:22 37.37531 -110.83095 36800 ft 532 kts 62°
2026-05-05 17:22 37.40817 -110.74746 36787 ft 533 kts 62°
2026-05-05 17:23 37.44099 -110.66395 36787 ft 533 kts 62°
2026-05-05 17:23 37.47378 -110.58035 36784 ft 533 kts 62°
2026-05-05 17:24 37.50657 -110.49656 36793 ft 533 kts 62°
2026-05-05 17:24 37.53926 -110.41278 36780 ft 533 kts 62°
2026-05-05 17:25 37.57187 -110.32889 36836 ft 532 kts 62°
2026-05-05 17:25 37.60429 -110.24525 36783 ft 530 kts 62°
2026-05-05 17:26 37.63633 -110.16257 36788 ft 526 kts 62°
2026-05-05 17:26 37.66850 -110.07927 36791 ft 524 kts 62°
2026-05-05 17:27 37.70012 -109.99717 36811 ft 524 kts 62°
2026-05-05 17:27 37.73194 -109.91431 36803 ft 525 kts 62°
2026-05-05 17:28 37.76380 -109.83112 36834 ft 527 kts 62°
2026-05-05 17:28 37.79572 -109.74754 36831 ft 528 kts 63°
2026-05-05 17:29 37.82761 -109.66375 36847 ft 530 kts 62°
2026-05-05 17:29 37.85958 -109.57958 36845 ft 531 kts 62°
2026-05-05 17:30 37.89158 -109.49513 36820 ft 532 kts 63°
2026-05-05 17:30 37.92327 -109.41121 36792 ft 525 kts 62°
2026-05-05 17:31 37.95466 -109.32786 36793 ft 523 kts 63°
2026-05-05 17:31 37.98591 -109.24469 36786 ft 522 kts 63°
2026-05-05 17:32 38.01707 -109.16154 36793 ft 522 kts 63°
2026-05-05 17:32 38.04817 -109.07828 36781 ft 523 kts 63°
2026-05-05 17:33 38.07927 -108.99481 36787 ft 523 kts 63°
2026-05-05 17:33 38.10515 -108.92533 36790 ft 524 kts 62°
2026-05-05 17:34 38.13752 -108.84230 36799 ft 525 kts 61°
2026-05-05 17:34 38.17050 -108.75941 36785 ft 526 kts 61°
2026-05-05 17:35 38.20326 -108.67640 36773 ft 526 kts 61°
2026-05-05 17:35 38.23591 -108.59290 36775 ft 526 kts 61°
2026-05-05 17:36 38.26838 -108.50953 36789 ft 525 kts 62°
2026-05-05 17:36 38.30074 -108.42625 36954 ft 524 kts 65°
2026-05-05 17:36 38.31673 -108.38510 36898 ft 513 kts 65°
2026-05-05 17:37 38.33240 -108.34466 36813 ft 504 kts 65°
2026-05-05 17:37 38.36315 -108.26506 36791 ft 501 kts 65°
2026-05-05 17:38 38.39370 -108.18581 36829 ft 503 kts 65°
2026-05-05 17:38 38.42477 -108.10497 36847 ft 511 kts 65°
2026-05-05 17:39 38.45609 -108.02335 36880 ft 513 kts 65°
2026-05-05 17:39 38.48732 -107.94127 36895 ft 515 kts 65°
2026-05-05 17:40 38.51841 -107.85881 36902 ft 515 kts 65°
2026-05-05 17:40 38.54943 -107.77634 36892 ft 515 kts 65°
2026-05-05 17:41 38.58038 -107.69394 36841 ft 514 kts 65°
2026-05-05 17:41 38.61116 -107.61178 36801 ft 511 kts 65°
2026-05-05 17:42 38.64171 -107.53001 36774 ft 509 kts 65°
2026-05-05 17:42 38.67223 -107.44851 36749 ft 507 kts 65°
2026-05-05 17:43 38.70306 -107.36732 36716 ft 505 kts 65°
2026-05-05 17:43 38.73376 -107.28632 36757 ft 508 kts 65°
2026-05-05 17:44 38.76466 -107.20434 36781 ft 514 kts 65°
2026-05-05 17:44 38.79565 -107.12182 36802 ft 512 kts 65°
2026-05-05 17:45 38.82610 -107.04052 36799 ft 510 kts 65°
2026-05-05 17:45 38.85680 -106.95837 36786 ft 508 kts 65°
2026-05-05 17:46 38.88729 -106.87656 36784 ft 508 kts 65°
2026-05-05 17:46 38.91770 -106.79469 36789 ft 508 kts 65°
2026-05-05 17:47 38.94814 -106.71251 36503 ft 514 kts 65°
2026-05-05 17:47 38.96349 -106.67096 36022 ft 514 kts 65°
2026-05-05 17:47 38.97880 -106.62951 35484 ft 514 kts 65°
2026-05-05 17:47 38.99417 -106.58787 34896 ft 517 kts 65°
2026-05-05 17:48 39.00957 -106.54601 34295 ft 520 kts 65°
2026-05-05 17:48 39.02502 -106.50383 33663 ft 523 kts 65°
2026-05-05 17:48 39.04053 -106.46139 32998 ft 524 kts 65°
2026-05-05 17:48 39.05602 -106.41893 32365 ft 524 kts 65°
2026-05-05 17:49 39.07146 -106.37657 31727 ft 522 kts 65°
2026-05-05 17:49 39.08683 -106.33435 31086 ft 520 kts 65°
2026-05-05 17:49 39.10214 -106.29225 30339 ft 520 kts 65°
2026-05-05 17:49 39.11747 -106.25002 29500 ft 518 kts 65°
2026-05-05 17:50 39.13255 -106.20848 29215 ft 504 kts 65°
2026-05-05 17:50 39.14710 -106.16830 29095 ft 487 kts 65°
2026-05-05 17:50 39.16123 -106.12921 28435 ft 481 kts 65°
2026-05-05 17:50 39.17530 -106.09009 27717 ft 479 kts 65°
2026-05-05 17:51 39.18925 -106.05126 27025 ft 476 kts 65°
2026-05-05 17:51 39.20308 -106.01267 26360 ft 472 kts 64°
2026-05-05 17:51 39.21679 -105.97442 25713 ft 468 kts 64°
2026-05-05 17:51 39.23040 -105.93642 25081 ft 464 kts 64°
2026-05-05 17:52 39.24386 -105.89882 24518 ft 459 kts 64°
2026-05-05 17:52 39.25722 -105.86171 24048 ft 452 kts 64°
2026-05-05 17:52 39.27038 -105.82522 23614 ft 445 kts 64°
2026-05-05 17:52 39.28337 -105.78917 23142 ft 439 kts 64°
2026-05-05 17:53 39.29612 -105.75373 22673 ft 433 kts 64°
2026-05-05 17:53 39.30872 -105.71866 22230 ft 426 kts 64°
2026-05-05 17:53 39.32107 -105.68422 21835 ft 419 kts 64°
2026-05-05 17:53 39.33328 -105.65030 21400 ft 414 kts 63°
2026-05-05 17:54 39.34550 -105.61683 20981 ft 409 kts 63°
2026-05-05 17:54 39.35760 -105.58380 20574 ft 405 kts 63°
2026-05-05 17:54 39.36941 -105.55153 20165 ft 401 kts 63°
2026-05-05 17:54 39.38124 -105.51912 19766 ft 396 kts 64°
2026-05-05 17:55 39.39291 -105.48706 19367 ft 393 kts 64°
2026-05-05 17:55 39.40448 -105.45522 18964 ft 390 kts 64°
2026-05-05 17:55 39.41490 -105.42314 18549 ft 388 kts 74°
2026-05-05 17:55 39.41807 -105.38872 18173 ft 383 kts 89°
2026-05-05 17:56 39.41832 -105.35444 17729 ft 381 kts 91°
2026-05-05 17:56 39.41817 -105.32035 17313 ft 377 kts 91°
2026-05-05 17:56 39.41801 -105.28656 16919 ft 374 kts 91°
2026-05-05 17:56 39.41795 -105.25313 16536 ft 370 kts 91°
2026-05-05 17:57 39.41799 -105.22000 16164 ft 367 kts 90°
2026-05-05 17:57 39.41808 -105.18717 15796 ft 364 kts 90°
2026-05-05 17:57 39.41821 -105.15466 15426 ft 361 kts 90°
2026-05-05 17:57 39.41834 -105.12232 15061 ft 359 kts 90°
2026-05-05 17:58 39.41847 -105.09009 14694 ft 357 kts 90°
2026-05-05 17:58 39.41859 -105.05806 14323 ft 355 kts 90°
2026-05-05 17:58 39.41871 -105.02626 13966 ft 353 kts 90°
2026-05-05 17:58 39.41881 -104.99457 13578 ft 352 kts 90°
2026-05-05 17:59 39.41890 -104.96301 13174 ft 349 kts 90°
2026-05-05 17:59 39.41942 -104.93177 12806 ft 347 kts 86°
2026-05-05 17:59 39.42194 -104.90090 12465 ft 342 kts 83°
2026-05-05 17:59 39.42497 -104.87058 12143 ft 339 kts 83°
2026-05-05 18:00 39.42796 -104.84053 11807 ft 335 kts 84°
2026-05-05 18:00 39.43073 -104.81085 11482 ft 331 kts 84°
2026-05-05 18:00 39.43336 -104.78146 11154 ft 327 kts 85°
2026-05-05 18:00 39.43726 -104.75294 10997 ft 319 kts 73°
2026-05-05 18:01 39.44528 -104.72676 10981 ft 307 kts 68°
2026-05-05 18:01 39.45561 -104.70339 10959 ft 296 kts 48°
2026-05-05 18:01 39.47135 -104.68735 10971 ft 284 kts 27°
2026-05-05 18:01 39.48950 -104.67906 10982 ft 271 kts 14°
2026-05-05 18:02 39.50745 -104.67299 10970 ft 263 kts 14°
2026-05-05 18:02 39.52511 -104.66709 10982 ft 261 kts 13°
2026-05-05 18:02 39.54301 -104.66377 10881 ft 261 kts
2026-05-05 18:02 39.56102 -104.66334 10752 ft 262 kts 359°
2026-05-05 18:03 39.57959 -104.66339 10446 ft 270 kts 359°
2026-05-05 18:03 39.59854 -104.66331 10100 ft 274 kts
2026-05-05 18:03 39.61772 -104.66311 9731 ft 278 kts
2026-05-05 18:03 39.63712 -104.66286 9346 ft 279 kts
2026-05-05 18:04 39.65644 -104.66262 8948 ft 275 kts
2026-05-05 18:04 39.67532 -104.66240 8588 ft 266 kts
2026-05-05 18:04 39.69342 -104.66219 8224 ft 255 kts
2026-05-05 18:04 39.71072 -104.66197 7886 ft 244 kts
2026-05-05 18:05 39.72755 -104.66178 7542 ft 238 kts
2026-05-05 18:05 39.74358 -104.66159 7239 ft 221 kts
2026-05-05 18:05 39.75831 -104.66141 6954 ft 207 kts
2026-05-05 18:05 39.77213 -104.66124 6696 ft 190 kts
2026-05-05 18:06 39.78474 -104.66111 6447 ft 171 kts
2026-05-05 18:06 39.79231 -104.66102 6299 ft 159 kts
2026-05-05 18:06 39.80673 -104.66081 5955 ft 155 kts
2026-05-05 18:06 39.81767 -104.66069 5723 ft 159 kts
2026-05-05 18:07 39.82859 -104.66063 5506 ft 164 kts
2026-05-05 18:07 39.83938 -104.66042 5412 ft 140 kts
2026-05-05 18:07 39.84761 -104.66032 5402 ft 97 kts
2026-05-05 18:07 39.85156 -104.66072 5397 ft 30 kts 333°
2026-05-05 18:08 39.85287 -104.66158 5395 ft 11 kts 302°
2026-05-05 18:08 39.85294 -104.66270 5398 ft 11 kts 271°
2026-05-05 18:08 39.85296 -104.66394 5391 ft 17 kts 271°
2026-05-05 18:08 39.85288 -104.66540 5386 ft 13 kts 244°
2026-05-05 18:09 39.85238 -104.66627 5386 ft 12 kts 250°
2026-05-05 18:09 39.85233 -104.66733 5386 ft 12 kts 276°
2026-05-05 18:09 39.85233 -104.66838 5386 ft 11 kts 269°
2026-05-05 18:09 39.85233 -104.66939 5386 ft 11 kts 270°
2026-05-05 18:10 39.85234 -104.67041 5386 ft 12 kts 270°
2026-05-05 18:10 39.85235 -104.67153 5386 ft 12 kts 271°
2026-05-05 18:10 39.85235 -104.67263 5386 ft 12 kts 270°
2026-05-05 18:10 39.85236 -104.67370 5386 ft 12 kts 270°
2026-05-05 18:11 39.85237 -104.67463 5386 ft 5 kts 271°
2026-05-05 18:11 39.85257 -104.67501 5384 ft 6 kts 329°
2026-05-05 18:11 39.85299 -104.67512 5386 ft 7 kts
2026-05-05 18:11 39.85337 -104.67513 5386 ft 0 kts